Location: Johnson City
(36.3130°N, 82.3540°W)
Time: 05:04:11
(UTC-05:00)

N. Korean satellite - Pass Details

Date: 05 December 2021
Orbit: 446 x 492 km, 97.3° (Epoch: 16 January)

Event Time Altitude Azimuth Distance (km) Brightness Sun altitude
Rises 17:38:44 0° 194° (SSW) 2,534 10.8 -5.3°
Reaches altitude 10° 17:41:05 10° 209° (SSW) 1,651 10.2 -5.7°
Maximum altitude 17:43:59 23° 264° (W) 1,047 9.4 -6.3°
Drops below altitude 10° 17:46:51 10° 318° (NW) 1,638 9.5 -6.8°
Sets 17:49:10 0° 334° (NNW) 2,502 10.2 -7.2°
